STARLINK-1898

Last updated on Tue Nov 24 2020 00:02:02 GMT+0000 (Coordinated Universal Time)

1 46745U 20074G 20328.58334491 -.00002694 00000-0 -23594-4 0 9991 2 46745 53.0547 13.4125 0001001 52.3540 17.0109 15.62765210 1801
UTC large
Height (km)
Speed (km/s)
/
Latitude / Longitude
Inclination (degrees)
Orbital Period (minutes)
Azimuth
Elevation
Range (km)
Doppler Factor

Next 0 passes for location: London (51.5072 / 0.1276)

Sorry there are no passes over London.